Regional Weather Roundup
Issued by NWS Wilmington, NC

Home | Current Version | Previous Version | Text Only | Print | Product List | Glossary On
Versions: 1 2 3 4 5 6 7 8 9 10 11 12 13 14 15 16 17 18 19 20 21 22 23 24 25 26 27 28 29 30 31 32 33 34 35 36 37 38 39 40 41 42 43 44 45 46 47 48 49 50
912
ASUS42 KILM 071713
RWRILM
RWRILM
REGIONAL HOURLY WEATHER ROUNDUP
NATIONAL WEATHER SERVICE WILMINGTON NC
1200 PM EST SUN FEB 07 2016

NOTE: "FAIR" INDICATES FEW OR NO CLOUDS BELOW 12,000 FEET WITH NO
SIGNIFICANT WEATHER AND/OR OBSTRUCTIONS TO VISIBILITY.

...............WFO WILMINGTON COUNTY WARNING AREA...............

......COASTAL NC AND SC COUNTIES......

CITY           SKY/WX    TMP DP  RH WIND       PRES   REMARKS
WILMINGTON     HVY RAIN  35  31  85 N25G35    29.83F FOG     WCI  23
N MYRTLE BEACH RAIN      37  35  92 N13G26    29.83F WCI  29
MYRTLE BEACH   RAIN      37  30  75 N16G25    29.89F FOG     WCI  28

......INLAND NC AND SC COUNTIES.......

CITY           SKY/WX    TMP DP  RH WIND       PRES   REMARKS
LUMBERTON      RAIN      36  33  89 N16       29.98S FOG     WCI  26
ELIZABETHTOWN  RAIN      35  34  96 N6G17     29.95F WCI  30
WHITEVILLE     MIX PCPN  35  33  92 N12G17    29.90F WCI  27
FLORENCE       LGT RAIN  41  28  60 N20G26    29.98F
DARLINGTON     PTSUNNY   43  21  42 N14       30.03S
KINGSTREE      DRIZZLE   37  30  75 N8        29.98F WCI  31
HARTSVILLE     CLOUDY    41  23  48 N9G17     30.01S
BENNETTSVILLE  CLOUDY    45  28  53 N13G20    30.01F
CONWAY         RAIN      36  34  93 N9G18     29.92F WCI  29
GEORGETOWN     LGT RAIN  37  36  93 NW14G25   29.91F WCI  29
MARION         RAIN      36  34  93 N14G23    29.97F WCI  27

....................REST OF NORTH CAROLINA......................

.........EASTERN NC.........

CITY           SKY/WX    TMP DP  RH WIND       PRES   REMARKS
CAPE HATTERAS  RAIN      47  45  93 NE20G36   29.80F
JACKSONVILLE   CLOUDY    36  27  69 NW15G28   29.91S WCI  26
MOREHEAD CITY  LGT RAIN  42  40  92 N24G45    29.76F
KENANSVILLE    LGT SNOW  34  32  93 N10G20    29.96F WCI  26
NEW BERN       RAIN      38  34  85 N18G32    29.86F FOG     WCI  28
ELIZABETH CITY LGT RAIN  42  35  76 N24G31    29.97F

.........CENTRAL NC.........

CITY           SKY/WX    TMP DP  RH WIND       PRES   REMARKS
RALEIGH DURHAM CLOUDY    40  22  48 NE7       30.04S
ROCKY MOUNT    LGT RAIN  35  30  82 N12       30.01F WCI  27
ROANOKE RAPIDS NOT AVBL
FAYETTEVILLE   LGT RAIN  35  31  85 N20       29.99F WCI  24
HOFFMAN        LGT RAIN  41  26  55 N7        30.00F

.........WESTERN NC.........

CITY           SKY/WX    TMP DP  RH WIND       PRES   REMARKS
CHARLOTTE      CLOUDY    48  21  34 N15G21    30.07F
GREENSBORO     CLOUDY    42  21  43 N9        30.04F
HICKORY        NOT AVBL
BOONE          NOT AVBL
ASHEVILLE      NOT AVBL

.....................REST OF SOUTH CAROLINA.....................

.........EASTERN SC.........

CITY           SKY/WX    TMP DP  RH WIND       PRES   REMARKS
CHARLESTON     CLOUDY    41  33  73 N18G33    29.93F
BEAUFORT MCAS  CLOUDY    45  32  60 N14       29.99F
HILTON HEAD    PTSUNNY   45  34  65 N12G25    29.99F

.........CENTRAL SC.........

CITY           SKY/WX    TMP DP  RH WIND       PRES   REMARKS
COLUMBIA       CLOUDY    47  23  38 N8        30.04F
ORANGEBURG     CLOUDY    46  26  45 N10       30.02F
SUMTER SHAW    CLOUDY    45  23  41 N13       30.00R

.........WESTERN SC.........

CITY           SKY/WX    TMP DP  RH WIND       PRES   REMARKS
GREENVILLE     NOT AVBL
ROCK HILL      CLOUDY    47  24  40 N12       30.07S
ANDERSON       SUNNY     52  22  30 VRB7      30.09F
CLEMSON        NOT AVBL
GREENWOOD      SUNNY     52  23  32 N14G23    30.09F


...................COASTAL AND OFFSHORE REPORTS..................

................LOCAL PIERS AND NC RESERVE................


STATION/POSITION TIME  SKY/WX   TEMP    WIND        PRES    VSBY
                                AIR SEA DIR/SP/G
                 (UTC)          (F)     (DEG/KT/KT) (MB)    (MI)
JOHNY MRCER PIER 1600            36 53  360/ 21/ 31 1009.2F
NC RESRV MASNBRO NOT AVBL
OCEAN CREST PIER NOT AVBL
SPRINGMAID  PIER 1600            37 51  320/ 13/ 19 1011.7F


................COASTAL AND OFFSHORE BUOYS................


STATION/POSITION TIME  SKY/WX   TEMP    WIND        PRES    VSBY
                                AIR SEA DIR/SP/G
                 (UTC)          (F)     (DEG/KT/KT) (MB)    (MI)
DIMNDSHOAL 41025 1650            56 70   20/ 33/ 41 1006.9F
WVE H/P(F/S)= 12/ 7

CAPE LOOKOUT     NOT AVBL
ONSLOW BAY 41036 NOT AVBL
ONSLOW BAY 41064 1608            45 64              1002.9F
ONSLOW BAY 41159 1625               64                N/A
WVE H/P(F/S)= 14/ 7 SWL H/P/D(F/S/D)=  2/ 90/11

5SE WRITBC 41038 1608            39 53   10/ 33/ 43 1008.7F
MASNBO INL 41110 1606               53                N/A
WVE H/P(F/S)=  8/ 6 SWL H/P/D(F/S/D)=  2/100/11

WILM HARBR 41108 1626               53                N/A
WVE H/P(F/S)=  6/ 4 SWL H/P/D(F/S/D)=  2/150/11

27SE WRITB 41037 1608            46      30/ 39     1004.2
FRYING PAN 41013 1600            48 67  350/ 35/ 43 1006.1F
SUNST NRSH 41024 NOT AVBL
CAPRS NRSH 41029 1608            42     340/ 19/ 25 1012.7S
EDISTO     41004 1650            47 66  340/ 27/ 35 1009.3F
WVE H/P(F/S)= 10/ 8 SWL H/P/D(F/S/D)=  5/ 9



..........OFFSHORE BUOYS BEYOND 100 NM OFFSHORE...........
.....IN A TRIANGLE---HAT TO BERMUDA TO BAHAMAS TO HAT.....


STATION/POSITION TIME  SKY/WX   TEMP    WIND        PRES    VSBY
                                AIR SEA DIR/SP/G
                 (UTC)          (F)     (DEG/KT/KT) (MB)    (MI)
150E HAT   41001 1600            61 71   70/ 31/ 41 1009.4F
W BERMUDA  41048 1650            71 70  140/ 23/ 27 1007.6F
WVE H/P(F/S)=  9/10 SWL H/P/D(F/S/D)=  5/ 50/10

ATLANTIC S 41049 1650            75 74  170/ 17/ 19 1017.6F
WVE H/P(F/S)=  9/ 9 SWL H/P/D(F/S/D)=  8/110/ 9

E BAHAMAS  41046 1650            79 78  180/ 19/ 23 1015.3F
WVE H/P(F/S)=  8/10 SWL H/P/D(F/S/D)=  7/ 70/10

NE BAHAMAS 41047 1650            76 76  190/ 25/ 31 1009.1F
WVE H/P(F/S)=  9/11 SWL H/P/D(F/S/D)=  7/ 40/11

120E CANVRL41010 1620            66 74              1008.1R

END




USA.gov is the U.S. government's official web portal to all federal, state and local government web resources and services.